GPS BIIF-8 (PRN 03)

Last updated on Tue Dec 03 2024 00:03:09 GMT+0000 (Coordinated Universal Time)

1 40294U 14068A 24337.52674906 -.00000049 00000+0 00000+0 0 9998 2 40294 56.5629 52.6857 0054390 65.2608 295.3467 2.00570610 73945
UTC large
Height (km)
Speed (km/s)
/
Latitude / Longitude
Inclination (degrees)
Orbital Period (minutes)
Azimuth
Elevation
Range (km)
Doppler Factor

Next 0 passes for location: London (51.5072 / 0.1276)

Sorry there are no passes over London.